Powrót do katalogu

QIANFAN-164

AktywnyŁącznośćPO
NORAD 69326·PAYLOAD·🇨🇳 China

Wystrzelony Jun 1, 2026 z Jiuquan Satellite Launch Center

Loading…

Następne Przeloty (najbliższe 24 godziny)

TLE

ŚwieżeSource: Space-Track

Epoka: Sep 14, 2026, 12:26 UTC

1 69326U 26121B   26257.51858521  .00000034  00000-0  34262-4 0  9993
2 69326  89.0107 291.6141 0001947 111.4583 248.6776 13.51021241 14231

Śledź QIANFAN-164 w czasie rzeczywistym z AllMySat

Download on the App Store